Location: Agadir Irigdalene
(31.2522°N, 8.7797°W)
Time: 06:47:48
(UTC+00:00)

Cosmos 2369 Rocket - Pass Details

Date: 01 December 2020
Orbit: 829 x 852 km, 71.0° (Epoch: 25 January)

Event Time Altitude Azimuth Distance (km) Brightness Sun altitude
Rises 17:53:57 0° 355° (N) 3,410 5.2 -5.1°
Reaches altitude 10° 17:56:59 10° 11° (N) 2,468 4.3 -5.7°
Maximum altitude 18:01:18 22° 61° (ENE) 1,755 3.3 -6.5°
Drops below altitude 10° 18:05:35 10° 111° (ESE) 2,447 4.2 -7.4°
Sets 18:08:34 0° 126° (SE) 3,374 5.0 -8.0°
